Pipestone, MN

9:58 PM CDT on April 27, 2017 (GMT -0500)
Pipestone Municipal

Weather History for KPQN - September, 2013

Change the Weather History Date:

Saturday, September 14, 2013

  Actual Average Record
Temperature  
Mean Temperature 57 °F -  
Max Temperature 66 °F 70 °F 84 °F (2006)
Min Temperature 48 °F 49 °F 37 °F (1996)
Degree Days  
Heating Degree Days 8    
Growing Degree Days 7 (Base 50)    
Moisture  
Dew Point 50 °F    
Average Humidity 73    
Maximum Humidity 87    
Minimum Humidity 56    
Precipitation  
Precipitation 0.00 in - - ()
Sea Level Pressure  
Sea Level Pressure 29.94 in    
Wind  
Wind Speed 9 mph (South)    
Max Wind Speed 17 mph    
Max Gust Speed 26 mph    
Visibility 10 miles    
Events Rain    
Averages and records for this station are not official NWS values.
T = Trace of Precipitation, MM = Missing Value Source: NWS Daily Summary

Daily Weather History Graph

Daily Weather History Graph

Search for Another Location

Airport or City:

Trip Planner

Search our weather history database for the weather conditions in past years. The results will help you decide how hot, cold, wet, or windy it might be!

Date:

Astronomy

Sep. 14, 2013 Rise Set
Actual Time 7:03 AM CDT 7:36 PM CDT
Civil Twilight 6:34 AM CDT 8:05 PM CDT
Nautical Twilight 6:00 AM CDT 8:40 PM CDT
Astronomical Twilight 5:24 AM CDT 9:15 PM CDT
Moon 4:26 PM CDT (9/14) 1:28 AM CDT (9/14)
Length of Visible Light 13h 31m
Length of Day
12h 33m
Waxing Gibbous, 72% of the Moon is Illuminated
Sep 14
Waxing Gibbous
Sep 19
Full
Sep 26
Last Quarter
Oct 4
New
Oct 11
First Quarter

Hourly Weather History & Observations

Time (CDT) Temp. Dew Point Humidity Pressure Visibility Wind Dir Wind Speed Gust Speed Precip Events Conditions
12:13 AM 55.4 °F 46.4 °F 72% 30.07 in 10.0 mi South 6.9 mph - N/A   Clear
12:33 AM 55.4 °F 46.4 °F 72% 30.07 in 10.0 mi South 8.1 mph - N/A   Clear
12:53 AM 55.4 °F 46.4 °F 72% 30.06 in 10.0 mi South 6.9 mph - N/A   Clear
1:13 AM 53.6 °F 46.4 °F 77% 30.06 in 10.0 mi South 6.9 mph - N/A   Clear
1:33 AM 53.6 °F 46.4 °F 77% 30.06 in 10.0 mi South 8.1 mph - N/A   Clear
1:53 AM 53.6 °F 46.4 °F 77% 30.06 in 10.0 mi South 8.1 mph - N/A   Clear
2:13 AM 53.6 °F 44.6 °F 72% 30.06 in 10.0 mi South 6.9 mph - N/A   Clear
2:33 AM 53.6 °F 44.6 °F 72% 30.06 in 10.0 mi South 8.1 mph - N/A   Clear
2:53 AM 53.6 °F 44.6 °F 72% 30.05 in 10.0 mi South 8.1 mph - N/A   Clear
3:13 AM 53.6 °F 46.4 °F 77% 30.05 in 10.0 mi South 5.8 mph - N/A   Clear
3:33 AM 51.8 °F 46.4 °F 82% 30.05 in 10.0 mi South 4.6 mph - N/A   Clear
3:53 AM 51.8 °F 44.6 °F 76% 30.04 in 10.0 mi South 4.6 mph - N/A   Clear
4:13 AM 50.0 °F 44.6 °F 82% 30.04 in 10.0 mi South 5.8 mph - N/A   Clear
4:33 AM 48.2 °F 44.6 °F 87% 30.04 in 10.0 mi South 6.9 mph - N/A   Clear
4:53 AM 48.2 °F 44.6 °F 87% 30.04 in 10.0 mi South 5.8 mph - N/A   Clear
5:13 AM 48.2 °F 44.6 °F 87% 30.03 in 10.0 mi South 5.8 mph - N/A   Clear
5:34 AM 48.2 °F 44.6 °F 87% 30.03 in 10.0 mi South 4.6 mph - N/A   Clear
5:53 AM 48.2 °F 44.6 °F 87% 30.03 in 10.0 mi South 4.6 mph - N/A   Clear
6:13 AM 48.2 °F 44.6 °F 87% 30.03 in 10.0 mi South 5.8 mph - N/A   Scattered Clouds
6:33 AM 50.0 °F 44.6 °F 82% 30.02 in 10.0 mi SSE 5.8 mph - N/A   Scattered Clouds
6:53 AM 50.0 °F 46.4 °F 87% 30.02 in 10.0 mi South 4.6 mph - N/A   Scattered Clouds
7:13 AM 50.0 °F 46.4 °F 87% 30.01 in 10.0 mi South 6.9 mph - N/A   Mostly Cloudy
7:33 AM 51.8 °F 46.4 °F 82% 30.01 in 10.0 mi South 5.8 mph - N/A   Overcast
7:53 AM 51.8 °F 46.4 °F 82% 30.01 in 10.0 mi South 6.9 mph - N/A   Overcast
8:13 AM 53.6 °F 48.2 °F 82% 30.01 in 10.0 mi South 4.6 mph - N/A   Overcast
8:33 AM 55.4 °F 48.2 °F 77% 30.00 in 10.0 mi South 6.9 mph - N/A   Overcast
8:53 AM 57.2 °F 48.2 °F 72% 30.00 in 10.0 mi South 9.2 mph - N/A   Overcast
9:13 AM 57.2 °F 48.2 °F 72% 30.00 in 10.0 mi SSW 9.2 mph - N/A Rain Light Rain
9:33 AM 57.2 °F 48.2 °F 72% 29.99 in 10.0 mi South 12.7 mph - N/A Rain Light Rain
9:53 AM 57.2 °F 50.0 °F 77% 29.99 in 10.0 mi SSW 10.4 mph 16.1 mph N/A Rain Rain
10:13 AM 60.8 °F 50.0 °F 68% 29.99 in 10.0 mi South 11.5 mph 18.4 mph N/A   Scattered Clouds
10:33 AM 60.8 °F 48.2 °F 63% 29.99 in 10.0 mi SSW 12.7 mph - N/A   Mostly Cloudy
10:53 AM 62.6 °F 48.2 °F 59% 29.98 in 10.0 mi SSW 16.1 mph 19.6 mph N/A   Overcast
11:13 AM 62.6 °F 48.2 °F 59% 29.97 in 10.0 mi SSW 11.5 mph - N/A   Mostly Cloudy
11:33 AM 64.4 °F 48.2 °F 56% 29.96 in 10.0 mi SSW 15.0 mph 19.6 mph N/A   Mostly Cloudy
11:53 AM 64.4 °F 48.2 °F 56% 29.96 in 10.0 mi SSW 15.0 mph 23.0 mph N/A   Mostly Cloudy
12:13 PM 60.8 °F 51.8 °F 72% 29.95 in 10.0 mi SSW 11.5 mph - N/A Rain Light Rain
12:33 PM 60.8 °F 51.8 °F 72% 29.95 in 10.0 mi SSW 12.7 mph - N/A   Overcast
12:53 PM 60.8 °F 53.6 °F 77% 29.95 in 10.0 mi SSW 11.5 mph - N/A Rain Light Rain
1:13 PM 62.6 °F 51.8 °F 68% 29.94 in 10.0 mi SSW 17.3 mph 24.2 mph N/A   Overcast
1:33 PM 62.6 °F 51.8 °F 68% 29.93 in 10.0 mi South 15.0 mph 20.7 mph N/A   Overcast
1:53 PM 62.6 °F 51.8 °F 68% 29.92 in 10.0 mi South 13.8 mph 19.6 mph N/A   Overcast
2:13 PM 60.8 °F 53.6 °F 77% 29.90 in 10.0 mi South 15.0 mph 23.0 mph N/A Rain Light Rain
2:33 PM 60.8 °F 53.6 °F 77% 29.90 in 10.0 mi South 16.1 mph - N/A   Mostly Cloudy
2:53 PM 62.6 °F 53.6 °F 72% 29.88 in 10.0 mi South 15.0 mph 21.9 mph N/A   Scattered Clouds
3:13 PM 62.6 °F 53.6 °F 72% 29.87 in 10.0 mi South 13.8 mph 20.7 mph N/A   Scattered Clouds
3:33 PM 62.6 °F 53.6 °F 72% 29.86 in 10.0 mi South 17.3 mph 23.0 mph N/A   Scattered Clouds
3:53 PM 62.6 °F 51.8 °F 68% 29.85 in 10.0 mi South 16.1 mph 26.5 mph N/A   Scattered Clouds
4:13 PM 62.6 °F 51.8 °F 68% 29.84 in 10.0 mi South 16.1 mph 24.2 mph N/A   Scattered Clouds
4:33 PM 64.4 °F 53.6 °F 68% 29.84 in 10.0 mi South 15.0 mph - N/A   Mostly Cloudy
4:53 PM 64.4 °F 53.6 °F 68% 29.84 in 10.0 mi South 10.4 mph 21.9 mph N/A   Mostly Cloudy
5:13 PM 64.4 °F 53.6 °F 68% 29.83 in 10.0 mi South 12.7 mph - N/A   Mostly Cloudy
5:33 PM 64.4 °F 53.6 °F 68% 29.83 in 10.0 mi SSW 9.2 mph - N/A   Mostly Cloudy
5:53 PM 64.4 °F 53.6 °F 68% 29.85 in 10.0 mi SW 8.1 mph - N/A   Mostly Cloudy
6:13 PM 64.4 °F 55.4 °F 73% 29.85 in 10.0 mi SW 6.9 mph - N/A   Overcast
6:33 PM 64.4 °F 55.4 °F 73% 29.84 in 10.0 mi SSW 9.2 mph - N/A   Overcast
6:53 PM 66.2 °F 55.4 °F 68% 29.83 in 10.0 mi SSW 11.5 mph - N/A   Overcast
7:14 PM 64.4 °F 55.4 °F 73% 29.83 in 10.0 mi SSW 8.1 mph - N/A   Scattered Clouds
7:33 PM 64.4 °F 53.6 °F 68% 29.82 in 10.0 mi SSW 10.4 mph - N/A   Clear
7:53 PM 64.4 °F 53.6 °F 68% 29.81 in 10.0 mi SSW 9.2 mph - N/A   Scattered Clouds
8:14 PM 64.4 °F 53.6 °F 68% 29.82 in 10.0 mi SSW 9.2 mph - N/A   Clear
8:33 PM 64.4 °F 53.6 °F 68% 29.82 in 10.0 mi SSW 9.2 mph - N/A   Clear
8:53 PM 64.4 °F 53.6 °F 68% 29.82 in 10.0 mi SSW 10.4 mph - N/A   Clear
9:13 PM 64.4 °F 53.6 °F 68% 29.82 in 10.0 mi SSW 11.5 mph - N/A   Clear
9:33 PM 64.4 °F 53.6 °F 68% 29.82 in 10.0 mi SSW 10.4 mph - N/A   Scattered Clouds
9:53 PM 64.4 °F 53.6 °F 68% 29.82 in 10.0 mi SSW 9.2 mph - N/A   Mostly Cloudy
10:13 PM 64.4 °F 53.6 °F 68% 29.82 in 10.0 mi SSW 11.5 mph - N/A   Mostly Cloudy
10:33 PM 64.4 °F 53.6 °F 68% 29.81 in 10.0 mi SSW 10.4 mph - N/A   Overcast
10:53 PM 64.4 °F 53.6 °F 68% 29.82 in 10.0 mi SSW 10.4 mph 16.1 mph N/A   Overcast
11:13 PM 64.4 °F 53.6 °F 68% 29.82 in 10.0 mi SSW 10.4 mph 18.4 mph N/A   Overcast
11:33 PM 64.4 °F 55.4 °F 73% 29.81 in 10.0 mi SSW 9.2 mph - N/A   Overcast
11:54 PM 64.4 °F 55.4 °F 73% 29.81 in 10.0 mi SSW 11.5 mph - N/A   Overcast